Weather in Horog

Tajikistan     37°29′16″N   71°32′57″E
temp.,
°C
wind,
m/s
gust,
m/s
humid.,
%
clouds,
%
prec.,
mm/h
press.,
hPa
HPBL,
m
23 april, fri
fri2323:00−13wnw22799 0.1 104118
02:00−16wnw12804 0.0 104619
05:00−18wnw218522 0.0 104965
08:00−15nw117712 0.0 1047163
11:00−11ssw00612 0.0 1038230
14:00−6ene00551 0.0 1030249
17:00−4s01670 0.0 1028116
20:00−12wnw22684 0.0 103916
24 april, sat
sat2423:00−14nw12714 0.0 104321
02:00−16wnw218216 0.0 104629
05:00−18wnw21814 0.0 105078
08:00−14wsw11631 0.0 1047178
11:00−9wnw004438 0.0 1038206
14:00−4ese004933 0.0 1030224
17:00−2w1162100 0.0 102996
20:00−7wnw1167100 0.0 103411
25 april, sun
sun2523:00−8nw116697 0.0 103722
02:00−10nw116538 0.0 104030
05:00−12wnw116886 0.0 104369
08:00−8w106084 0.0 1040162
11:00−4sw005371 0.0 1033196
14:00−1nw006016 0.0 1029212
17:00+1wsw01665 0.0 102798
20:00−5wnw22685 0.0 103211
26 april, mon
mon2623:00−6wnw12675 0.0 103412
02:00−7wnw11725 0.0 103522
05:00−9w11745 0.0 103776
08:00−6wnw106012 0.0 1034180
11:00−2wnw0156100 0.0 1029219
14:00+2wnw115547 0.0 1025269
17:00+3wnw1166100 0.0 1024144
20:000w1169100 0.0 102611
27 april, tue
tue2723:000w117197 0.0 102713
02:00−2w11715 0.0 102611
05:00−3wnw11685 0.0 102712
08:00−1nnw01510 0.0 1028227
11:00+3n01430 0.0 1026332
14:00+6nne11405 0.0 1022462
17:00+7n11495 0.0 1020305
20:00+3sse226112 0.0 102319